(206765) = 2004 CG26

Discovered at Kitt Peak on 2004-02-11 by Spacewatch.

Orbit

Orbit type: Main Belt

Note: WebGL enabled browser required.

epoch2024-03-31.0
epoch JD2460400.5
perihelion date2023-06-28.11060
perihelion JD2460123.61060
argument of perihelion (°)316.26462
ascending node (°)149.15583
inclination (°)6.39514
eccentricity0.0349273
perihelion distance (AU)2.8175955
Tisserand w.r.t. Jupiter3.3
ΔV w.r.t. Earth (km/sec)10.6
semimajor axis (AU)2.9195682
mean anomaly (°)54.70566
mean daily motion (°/day)0.19757220
aphelion distance (AU)3.022
period (years)4.99
P-vector [x]-0.26810578
P-vector [y]0.91169474
P-vector [z]0.31133904
Q-vector [x]-0.96169540
Q-vector [y]-0.27243005
Q-vector [z]-0.03039469
absolute magnitude16.15
phase slope0.15
uncertainty0
referenceMPEC 2024-E109
observations used461
oppositions17
arc length (days)9118
first opposition used1999
last opposition used2024
residual rms (arc-secs)0.75
perturbers coarse indicatorM-v
perturbers precise indicator003Ek
first observation date used1999-03-20.0
last observation date used2024-03-06.0
computer nameMPCLINUX
JD of orbit computation2456937.262227
perihelion JD uncertainty (days)3.4155E-04
argument of perihelion uncertainty (°)7.4973E-05
ascending node uncertainty (°)2.9345E-05
inclination uncertainty (°)5.6454E-06
eccentricity uncertainty 4.4110E-08
perihelion distance uncertainty (AU)1.2993E-07
Minimum Orbit Intersection Distances (in AU)
for orbit epoch: 2460400.5, reference: E2024-GD4
Mercury2.49234
Venus2.10402
Earth1.8387
Mars1.17989
Jupiter2.01076
Saturn6.23306
Uranus15.5696
Neptune26.9291

Observations

479 total observations over interval: 1999 03 20.30761 – 2024 03 06.370117
These data are available for download (format description).

Date (UT) J2000 RA J2000 Dec Magn Location Ref
1999 03 20.30761 09 59 34.92 +13 43 16.5 20.8 V 691 – Steward Observatory, Kitt Peak-Spacewatch MPS 175719
1999 03 20.32969 09 59 34.22 +13 43 22.4 20.7 V 691 – Steward Observatory, Kitt Peak-Spacewatch MPS 175719
1999 03 20.35219 09 59 33.56 +13 43 28.3 20.8 V 691 – Steward Observatory, Kitt Peak-Spacewatch MPS 175719
2004 02 11.28002 10 30 51.29 +09 36 56.4 20.4 V 291 – LPL/Spacewatch II MPS 98959
2004 02 11.30345 10 30 50.31 +09 37 05.8 20.3 V 291 – LPL/Spacewatch II MPS 98959
2004 02 11.32679 10 30 49.26 +09 37 14.7 20.8 V 291 – LPL/Spacewatch II MPS 98959
2004 02 14.45415 10 28 32.08 +09 57 48.3 20.7 V 691 – Steward Observatory, Kitt Peak-Spacewatch MPS 98959
2004 02 14.48130 10 28 30.84 +09 57 58.9 20.6 V 691 – Steward Observatory, Kitt Peak-Spacewatch MPS 98959
2004 02 14.50902 10 28 29.57 +09 58 10.2 20.9 V 691 – Steward Observatory, Kitt Peak-Spacewatch MPS 98959
2004 02 19.29707 10 24 50.86 +10 30 24.9 19.3   704 – Lincoln Laboratory ETS, New Mexico MPS 98959
2004 02 19.31073 10 24 50.24 +10 30 29.9 19.9   704 – Lincoln Laboratory ETS, New Mexico MPS 98959
2004 02 19.32652 10 24 49.51 +10 30 37.3 20.0   704 – Lincoln Laboratory ETS, New Mexico MPS 98959
2004 02 19.34038 10 24 48.80 +10 30 42.2 20.1   704 – Lincoln Laboratory ETS, New Mexico MPS 98959
2004 02 19.35291 10 24 48.20 +10 30 47.7 20.2   704 – Lincoln Laboratory ETS, New Mexico MPS 98959
2004 02 23.28411 10 21 43.91 +10 57 28.0 19.1   704 – Lincoln Laboratory ETS, New Mexico MPS 100158
2004 02 23.29635 10 21 43.26 +10 57 33.6 19.6   704 – Lincoln Laboratory ETS, New Mexico MPS 100158
2004 02 23.32137 10 21 42.21 +10 57 43.6 19.1   704 – Lincoln Laboratory ETS, New Mexico MPS 100158
2004 02 23.33391 10 21 41.54 +10 57 48.2 19.4   704 – Lincoln Laboratory ETS, New Mexico MPS 100158
2004 02 26.28967 10 19 23.01 +11 17 41.2 20.3   704 – Lincoln Laboratory ETS, New Mexico MPS 100158
2004 02 26.30089 10 19 22.42 +11 17 47.9 20.0   704 – Lincoln Laboratory ETS, New Mexico MPS 100158
2004 02 26.31205 10 19 21.88 +11 17 51.0 20.1   704 – Lincoln Laboratory ETS, New Mexico MPS 100158
2004 02 26.32322 10 19 21.40 +11 17 54.8 20.1   704 – Lincoln Laboratory ETS, New Mexico MPS 100158
2004 03 17.12849 10 05 38.37 +13 15 26.4 21.1 V 691 – Steward Observatory, Kitt Peak-Spacewatch MPS 101225
2004 03 17.15831 10 05 37.34 +13 15 35.1 20.9 V 691 – Steward Observatory, Kitt Peak-Spacewatch MPS 101225
2004 03 17.18721 10 05 36.34 +13 15 43.7 21.2 V 691 – Steward Observatory, Kitt Peak-Spacewatch MPS 101225
2004 03 26.12287 10 01 27.15 +13 53 44.1 21.0 V 691 – Steward Observatory, Kitt Peak-Spacewatch MPS 102233
2004 03 26.15471 10 01 26.40 +13 53 51.1 20.9 V 691 – Steward Observatory, Kitt Peak-Spacewatch MPS 102233
2004 03 26.18788 10 01 25.61 +13 53 58.0 21.2 V 691 – Steward Observatory, Kitt Peak-Spacewatch MPS 102233
2006 08 13.75176 22 00 13.15 -11 31 56.2 20.7 R D35 – Lulin Observatory MPS 175719
2006 08 13.76493 22 00 12.53 -11 32 00.9 21.6 R D35 – Lulin Observatory MPS 175719
2006 08 13.77829 22 00 11.93 -11 32 05.2 20.7 R D35 – Lulin Observatory MPS 175719
2006 08 28.19869 21 49 18.44 -12 58 26.6 20.4 V 691 – Steward Observatory, Kitt Peak-Spacewatch MPS 177031
2006 08 28.20859 21 49 17.99 -12 58 30.1 20.4 V 691 – Steward Observatory, Kitt Peak-Spacewatch MPS 177031
2006 08 28.21849 21 49 17.55 -12 58 34.3 19.8 V 691 – Steward Observatory, Kitt Peak-Spacewatch MPS 177031
2006 09 25.21174 21 33 36.86 -15 09 30.7 22.3 V G96 – Mt. Lemmon Survey MPS 181023
2006 09 25.21838 21 33 36.72 -15 09 31.7 21.1 V G96 – Mt. Lemmon Survey MPS 181023
2006 09 25.22502 21 33 36.54 -15 09 31.7 20.7 V G96 – Mt. Lemmon Survey MPS 181023
2006 09 25.23163 21 33 36.46 -15 09 33.7 20.6 V G96 – Mt. Lemmon Survey MPS 181023
2007 10 14.38839 04 09 35.24 +12 03 55.0 20.2 V G96 – Mt. Lemmon Survey MPS 267483
2007 10 14.39617 04 09 35.10 +12 03 53.3 20.0 V G96 – Mt. Lemmon Survey MPS 267483
2007 10 14.40400 04 09 34.99 +12 03 52.0 20.1 V G96 – Mt. Lemmon Survey MPS 267483
2007 10 14.41178 04 09 34.88 +12 03 50.8 19.6 V G96 – Mt. Lemmon Survey MPS 267483
2007 11 02.41704 03 59 53.59 +10 52 34.1 19.8 V G96 – Mt. Lemmon Survey MPS 268796
2007 11 02.42535 03 59 53.23 +10 52 32.3 20.2 V G96 – Mt. Lemmon Survey MPS 268796
2007 11 02.43366 03 59 52.87 +10 52 30.4 20.1 V G96 – Mt. Lemmon Survey MPS 268796
2007 11 02.44209 03 59 52.47 +10 52 28.4 19.8 V G96 – Mt. Lemmon Survey MPS 268796
2007 11 18.26704 03 47 14.02 +09 56 57.3 20.1 V G96 – Mt. Lemmon Survey MPS 267483
2007 11 18.27484 03 47 13.66 +09 56 55.0 19.6 V G96 – Mt. Lemmon Survey MPS 267483
2007 11 18.28250 03 47 13.20 +09 56 54.7 20.1 V G96 – Mt. Lemmon Survey MPS 267483
2007 11 18.29021 03 47 12.80 +09 56 53.3 19.8 V G96 – Mt. Lemmon Survey MPS 267483
2008 11 30.50014 10 34 01.86 +07 24 55.7 21.7 V 691 – Steward Observatory, Kitt Peak-Spacewatch MPS 267483
2008 11 30.51269 10 34 02.44 +07 24 53.4 21.6 V 691 – Steward Observatory, Kitt Peak-Spacewatch MPS 267483
2008 11 30.52525 10 34 02.99 +07 24 50.9 20.9 V 691 – Steward Observatory, Kitt Peak-Spacewatch MPS 267483
2009 01 17.50942 10 48 25.23 +07 10 24.5 20.9 V G96 – Mt. Lemmon Survey MPS 272455
2009 01 17.51465 10 48 25.16 +07 10 25.7 20.9 V G96 – Mt. Lemmon Survey MPS 272455
2009 01 17.51981 10 48 25.05 +07 10 26.8 20.8 V G96 – Mt. Lemmon Survey MPS 272455
2009 01 17.52497 10 48 24.98 +07 10 27.8 20.5 V G96 – Mt. Lemmon Survey MPS 272455
2009 01 20.52501 10 47 35.86 +07 21 30.3 20.6 V 691 – Steward Observatory, Kitt Peak-Spacewatch MPS 272455
2009 01 20.54075 10 47 35.57 +07 21 33.9 21.0 V 691 – Steward Observatory, Kitt Peak-Spacewatch MPS 272455
2009 01 20.55650 10 47 35.26 +07 21 37.8 21.0 V 691 – Steward Observatory, Kitt Peak-Spacewatch MPS 272455
2009 01 25.41775 10 45 49.55 +07 42 31.8 20.2 V 691 – Steward Observatory, Kitt Peak-Spacewatch MPS 272455
2009 01 25.43035 10 45 49.23 +07 42 35.6 20.3 V 691 – Steward Observatory, Kitt Peak-Spacewatch MPS 272455
2009 01 25.44292 10 45 48.89 +07 42 38.9 20.4 V 691 – Steward Observatory, Kitt Peak-Spacewatch MPS 272455
2009 01 31.41911 10 42 57.08 +08 13 01.9 20.5 V 691 – Steward Observatory, Kitt Peak-Spacewatch MPS 272455
2009 01 31.43742 10 42 56.45 +08 13 08.0 20.5 V 691 – Steward Observatory, Kitt Peak-Spacewatch MPS 272455
2009 01 31.45547 10 42 55.83 +08 13 14.2 20.2 V 691 – Steward Observatory, Kitt Peak-Spacewatch MPS 272455
2009 02 16.98286 10 31 57.05 +09 56 34.9 19.8 V J75 – OAM Observatory, La Sagra MPS 279981
2009 02 16.99622 10 31 56.37 +09 56 40.3 20.3 V J75 – OAM Observatory, La Sagra MPS 279981
2009 02 17.00959 10 31 55.79 +09 56 45.9 19.6 V J75 – OAM Observatory, La Sagra MPS 279981
2009 02 22.27497 10 27 52.26 +10 32 40.8 19.5   704 – Lincoln Laboratory ETS, New Mexico MPS 278514
2009 02 22.28672 10 27 51.69 +10 32 44.4 19.9   704 – Lincoln Laboratory ETS, New Mexico MPS 278514
2009 02 22.29855 10 27 51.07 +10 32 49.2 19.5   704 – Lincoln Laboratory ETS, New Mexico MPS 278514
2009 02 22.31047 10 27 50.51 +10 32 54.6 19.5   704 – Lincoln Laboratory ETS, New Mexico MPS 278514
2009 02 22.32243 10 27 49.93 +10 32 59.0 19.7   704 – Lincoln Laboratory ETS, New Mexico MPS 278514
2009 02 23.91964 10 26 35.22 +10 43 50.2 19.2 V J75 – OAM Observatory, La Sagra MPS 279981
2009 02 23.93300 10 26 34.54 +10 43 56.6 19.3 V J75 – OAM Observatory, La Sagra MPS 279981
2009 02 23.94622 10 26 33.94 +10 44 01.9 19.4 V J75 – OAM Observatory, La Sagra MPS 279981
2009 02 25.91841 10 25 01.52 +10 57 23.5 19.4 R 106 – Crni Vrh MPS 278514
2009 02 25.93770 10 25 00.53 +10 57 31.4 19.0 R 106 – Crni Vrh MPS 278514
2009 02 25.95700 10 24 59.54 +10 57 39.1 19.1 R 106 – Crni Vrh MPS 278514
2009 02 26.28525 10 24 44.24 +10 59 52.3 20.3 V 703 – Catalina Sky Survey MPS 279551
2009 02 26.29574 10 24 43.70 +10 59 57.3 20.4 V 703 – Catalina Sky Survey MPS 279551
2009 02 26.30610 10 24 43.34 +11 00 01.2 20.0 V 703 – Catalina Sky Survey MPS 279551
2009 02 26.31659 10 24 42.73 +11 00 04.6 19.7 V 703 – Catalina Sky Survey MPS 279551
2009 03 03.15353 10 20 59.69 +11 32 04.9 20.1 V 691 – Steward Observatory, Kitt Peak-Spacewatch MPS 279551
2009 03 03.17116 10 20 58.85 +11 32 11.8 20.0 V 691 – Steward Observatory, Kitt Peak-Spacewatch MPS 279551
